Location: Melara
(45.0500°N, 11.1833°E)
Time: 16:59:57
(UTC+00:00)

BlueWalker 3 - Pass Details

Date: 28 February 2024
Orbit: 485 x 495 km, 53.2° (Epoch: 20 April)

Event Time Altitude Azimuth Distance (km) Brightness Sun altitude
Rises 18:33:14 0° 302° (WNW) 2,563 6.7 -17.1°
Reaches altitude 10° 18:35:34 10° 313° (NW) 1,678 5.4 -17.6°
Maximum altitude 18:39:02 33° 18° (NNE) 846 2.9 -18.2°
Enters shadow 18:39:38 31° 39° (NE) 884 2.9 -18.3°
